Location: Los Gatos B&B
(42.6926°N, 77.0646°W)
Time: 11:52:40
(UTC-05:00)

Amateur Radio Satellites - All Passes

Search period start: 26 February 2017 11:22
Search period end: 27 February 2017 11:22
Location: Los Gatos B&B, 42.6926°N, 77.0646°W

Satellite Date Start Highest point End Downlink Frequencies (MHz)
Time Altitude Azimuth
ESTCUBE 1 26 Feb 11:23:58 11:28:21 51° 100° (E) 11:32:42 437.505/2401.250
DUCHIFAT 1 26 Feb 11:26:37 11:30:46 59° 259° (W) 11:34:58 145.980
50 SAT 26 Feb 11:32:51 11:33:42 11° 91° (E) 11:34:32 437.505
EO-79 26 Feb 11:39:03 11:42:56 36° 263° (W) 11:46:53 145.935-145.965
FO-29 26 Feb 11:40:02 11:45:25 22° 273° (W) 11:51:09 435.910
VELOX 1 26 Feb 11:45:00 11:48:48 28° 96° (E) 11:52:36 145.980
SPROUT 26 Feb 11:45:10 11:48:37 23° 94° (E) 11:52:03 437.525
YUBILEINY 26 Feb 11:50:58 11:58:50 35° 290° (WNW) 12:06:44 435.215
AO-85 26 Feb 11:52:48 11:56:05 25° 46° (NE) 11:59:23 145.980
NANOSAT C BR1 26 Feb 11:55:46 11:59:20 26° 265° (W) 12:02:55 145.865
POLYITAN 1 26 Feb 11:57:32 12:00:56 23° 265° (W) 12:04:23 437.675
ISS 26 Feb 11:57:45 12:00:20 21° 13° (NNE) 12:02:55 437.550
QB50P2 26 Feb 12:00:52 12:04:01 20° 267° (W) 12:07:13 145.880/145.840
AO-7 26 Feb 12:01:00 12:02:40 11° 38° (NE) 12:04:21 .
Gurwin Techsat 1B 26 Feb 12:10:37 12:14:55 26° 64° (ENE) 12:19:14 435.225
BUGSAT 1 26 Feb 12:19:31 12:23:23 42° 261° (W) 12:27:20 437.445
Tancredo 1 26 Feb 12:20:46 12:23:31 25° 18° (NNE) 12:26:15 437.200
Oscar 19 26 Feb 12:55:02 13:00:10 75° 256° (WSW) 13:05:20 437.125/150
ESTCUBE 1 26 Feb 13:01:52 13:04:45 17° 297° (WNW) 13:07:37 437.505/2401.250
50 SAT 26 Feb 13:03:45 13:07:04 44° 287° (WNW) 13:10:22 437.505
DX 1 26 Feb 13:08:38 13:13:01 84° 282° (WNW) 13:17:23 434.975-435.025
UKube-1 26 Feb 13:18:26 13:22:46 89° 90° (E) 13:27:05 .
SPROUT 26 Feb 13:20:43 13:24:34 32° 291° (WNW) 13:28:24 437.525
VELOX 1 26 Feb 13:21:25 13:25:11 28° 292° (WNW) 13:28:58 145.980
ITAMSAT 1 26 Feb 13:32:13 13:36:32 27° 65° (ENE) 13:40:52 435.822/435.867
AO-85 26 Feb 13:33:00 13:36:29 31° 244° (WSW) 13:40:01 145.980
ISS 26 Feb 13:33:57 13:37:14 71° 31° (NNE) 13:40:30 437.550
AO-7 26 Feb 13:45:32 13:53:16 44° 61° (ENE) 14:01:00 .
Gurwin Techsat 1B 26 Feb 13:49:34 13:54:37 44° 262° (W) 13:59:41 435.225
ITUPSAT 1 26 Feb 13:49:53 13:52:21 14° 90° (E) 13:54:46 437.325
BEESAT 26 Feb 13:55:15 13:58:13 16° 91° (E) 14:01:09 436.000
Tancredo 1 26 Feb 13:56:49 14:00:02 68° 217° (SW) 14:03:13 437.200
BEESAT 3 26 Feb 13:59:22 14:03:00 32° 49° (NE) 14:06:36 437.485
BEESAT 2 26 Feb 14:40:12 14:43:58 35° 49° (NE) 14:47:42 435.950
ITAMSAT 1 26 Feb 15:10:55 15:15:48 40° 262° (W) 15:20:43 435.822/435.867
ISS 26 Feb 15:11:26 15:13:19 15° 229° (SW) 15:15:13 437.550
RS-15 26 Feb 15:19:27 15:27:22 21° 97° (E) 15:35:25 29.354- 29.394
PCSat 26 Feb 15:25:32 15:30:31 39° 112° (ESE) 15:35:32 145.827
ITUPSAT 1 26 Feb 15:25:51 15:30:37 66° 287° (WNW) 15:35:20 437.325
BEESAT 26 Feb 15:31:39 15:36:20 56° 288° (WNW) 15:40:59 436.000
BEESAT 3 26 Feb 15:37:09 15:40:29 25° 246° (WSW) 15:43:47 437.485
AO-7 26 Feb 15:38:03 15:45:58 46° 260° (W) 15:53:56 .
MOZHAYETS 4 26 Feb 15:41:15 15:45:53 73° 103° (ESE) 15:50:26
KKS-1 26 Feb 16:03:12 16:07:10 30° 97° (E) 16:11:07 437.445
BEESAT 2 26 Feb 16:18:20 16:21:33 23° 247° (WSW) 16:24:46 435.950
DOVE 4 26 Feb 16:18:41 16:21:09 16° 64° (ENE) 16:23:38 437.250
XW-2F 26 Feb 16:23:01 16:25:00 14° 64° (ENE) 16:26:59 145.980 - 146.000
NO-84 26 Feb 16:24:19 16:27:20 44° 134° (SE) 16:30:39 435.350 FM
XW-2D 26 Feb 16:27:56 16:30:24 16° 66° (ENE) 16:32:52 145.860 - 145.880
CUTE-I 26 Feb 16:28:57 16:33:06 24° 63° (ENE) 16:37:18 437.470
XW-2B 26 Feb 16:32:47 16:35:27 18° 66° (ENE) 16:38:07 145.730 - 145.750
STARS 26 Feb 16:33:39 16:37:31 29° 96° (E) 16:41:22 437.465
M-CUBED/EXP-1 PRIME 26 Feb 16:36:32 16:37:49 11° 98° (E) 16:39:07 437.505
XW-2C 26 Feb 16:41:03 16:44:05 22° 68° (ENE) 16:47:08 145.795 - 145.815
CUBESAT XI-V 26 Feb 16:44:06 16:48:36 53° 100° (E) 16:53:05 437.345
NUDT-PHONESAT 26 Feb 16:48:17 16:51:12 22° 68° (ENE) 16:54:08 437.300
HO-68 26 Feb 16:54:43 16:58:42 16° 51° (NE) 17:02:42 435.675
LilacSat-2 26 Feb 16:58:42 17:02:17 37° 71° (ENE) 17:05:53 437.200
PCSat 26 Feb 17:09:05 17:13:57 33° 310° (NW) 17:18:52 145.827
MOZHAYETS 4 26 Feb 17:20:18 17:22:25 13° 299° (WNW) 17:24:32
RS-15 26 Feb 17:25:53 17:37:48 81° 120° (ESE) 17:50:12 29.354- 29.394
KKS-1 26 Feb 17:39:51 17:43:37 27° 293° (WNW) 17:47:22 437.445
XW-2A 26 Feb 17:40:36 17:42:41 15° 66° (ENE) 17:44:46 145.665 - 145.685
KAITUO 1B 26 Feb 17:47:51 17:51:38 70° 259° (WSW) 17:55:27 145.475/437.950
DOVE 4 26 Feb 17:54:29 17:58:28 46° 261° (W) 18:02:32 437.250
XW-2F 26 Feb 17:55:02 17:58:44 47° 260° (W) 18:02:30 145.980 - 146.000
CUTE 1.7 + AOD 2 26 Feb 17:55:03 17:58:08 20° 66° (ENE) 18:01:14 437.475
XW-2D 26 Feb 18:00:41 18:04:18 38° 262° (W) 18:07:55 145.860 - 145.880
NO-84 26 Feb 18:02:17 18:05:09 25° 334° (NNW) 18:08:15 435.350 FM
XW-2B 26 Feb 18:05:52 18:09:24 34° 263° (W) 18:12:57 145.730 - 145.750
CUTE-I 26 Feb 18:07:41 18:12:49 49° 260° (W) 18:18:01 437.470
M-CUBED/EXP-1 PRIME 26 Feb 18:08:45 18:12:30 60° 291° (WNW) 18:16:33 437.505
STARS 26 Feb 18:10:00 18:13:47 28° 293° (WNW) 18:17:32 437.465
XW-2C 26 Feb 18:14:51 18:18:09 27° 264° (W) 18:21:29 145.795 - 145.815
NUDT-PHONESAT 26 Feb 18:21:47 18:25:00 26° 264° (W) 18:28:15 437.300
CUBESAT XI-V 26 Feb 18:22:36 18:25:34 17° 297° (WNW) 18:28:31 437.345
CUBEBUG 2 26 Feb 18:27:27 18:30:50 21° 65° (ENE) 18:34:18 437.445
LilacSat-2 26 Feb 18:34:11 18:36:41 16° 268° (W) 18:39:12 437.200
AAUSAT CUBESAT 2 26 Feb 18:35:04 18:37:50 17° 65° (ENE) 18:40:35 437.432
HO-68 26 Feb 18:38:07 18:45:15 75° 71° (ENE) 18:52:25 435.675
SEEDS 26 Feb 18:48:29 18:52:33 47° 73° (ENE) 18:56:37 437.485
UWE-3 26 Feb 19:01:15 19:05:07 29° 68° (ENE) 19:09:06 435.000/436.395/437.385
XW-2A 26 Feb 19:12:09 19:15:12 30° 263° (W) 19:18:17 145.665 - 145.685
ZACube-1 26 Feb 19:19:08 19:22:55 27° 68° (ENE) 19:26:46 437.345
STRAND 1 26 Feb 19:20:00 19:25:05 54° 100° (E) 19:30:06 437.568
CUTE 1.7 + AOD 2 26 Feb 19:29:41 19:33:42 39° 262° (W) 19:37:43 437.475
RS-15 26 Feb 19:40:33 19:51:42 40° 326° (NW) 20:03:08 29.354- 29.394
NO-84 26 Feb 19:42:08 19:43:55 13° 356° (N) 19:45:46 435.350 FM
DELFI C3 26 Feb 19:55:11 19:57:33 15° 65° (ENE) 19:59:55 145.870
YUBILEINY 26 Feb 20:02:50 20:10:02 28° 66° (ENE) 20:17:09 435.215
CUBEBUG 2 26 Feb 20:02:58 20:07:09 40° 263° (W) 20:11:31 437.445
AO-73 26 Feb 20:05:54 20:10:21 76° 77° (ENE) 20:14:56 145.935
AAUSAT CUBESAT 2 26 Feb 20:09:02 20:12:58 42° 262° (W) 20:16:56 437.432
Oscar 11 26 Feb 20:10:56 20:15:16 76° 77° (ENE) 20:19:39 .
SEEDS 26 Feb 20:26:01 20:28:30 15° 269° (W) 20:30:58 437.485
HO-68 26 Feb 20:28:28 20:33:38 21° 269° (W) 20:38:49 435.675
SO-50 26 Feb 20:28:57 20:29:19 10° 107° (ESE) 20:29:41 436.795
PRISM 26 Feb 20:31:15 20:32:29 11° 90° (E) 20:33:42 437.425
UWE-3 26 Feb 20:37:40 20:41:31 28° 265° (W) 20:45:30 435.000/436.395/437.385
ZACube-1 26 Feb 20:55:09 20:59:05 30° 265° (W) 21:03:07 437.345
STRAND 1 26 Feb 21:00:06 21:03:51 21° 298° (WNW) 21:07:33 437.568
FO-29 26 Feb 21:05:54 21:07:56 11° 81° (E) 21:09:56 435.910
UNISAT 6 26 Feb 21:08:01 21:10:39 15° 90° (E) 21:13:16 437.425
TIGRISAT 26 Feb 21:08:04 21:10:26 14° 89° (E) 21:12:46 435.000
O/OREOS (USA 219) 26 Feb 21:09:22 21:10:36 11° 97° (E) 21:11:49 437.305
NO-84 26 Feb 21:20:11 21:22:52 17° 17° (NNE) 21:25:40 435.350 FM
DELFI C3 26 Feb 21:28:13 21:32:00 43° 261° (W) 21:35:47 145.870
LO-87 26 Feb 21:43:31 21:46:38 30° 71° (ENE) 21:49:46 145.935 - 145.965
AO-73 26 Feb 21:46:11 21:47:09 11° 272° (W) 21:48:07 145.935
YUBILEINY 26 Feb 21:58:56 22:07:34 68° 267° (W) 22:16:08 435.215
RS-15 26 Feb 21:59:17 22:08:59 25° 0° (N) 22:18:41 29.354- 29.394
PRISM 26 Feb 22:04:07 22:08:08 60° 286° (WNW) 22:12:10 437.425
SO-50 26 Feb 22:04:22 22:09:03 87° 129° (SE) 22:13:43 436.795
ESTCUBE 1 26 Feb 22:23:53 22:28:15 51° 72° (ENE) 22:32:38 437.505/2401.250
AIST 2D 26 Feb 22:38:46 22:40:56 15° 92° (E) 22:43:07 435.315
SPROUT 26 Feb 22:39:35 22:42:41 20° 66° (ENE) 22:45:48 437.525
TIGRISAT 26 Feb 22:42:52 22:47:33 64° 286° (WNW) 22:52:08 435.000
VELOX 1 26 Feb 22:42:59 22:46:41 27° 68° (ENE) 22:50:24 145.980
UNISAT 6 26 Feb 22:43:06 22:47:44 60° 287° (WNW) 22:52:18 437.425
O/OREOS (USA 219) 26 Feb 22:44:52 22:49:19 72° 294° (WNW) 22:53:50 437.305
FO-29 26 Feb 22:46:52 22:54:30 67° 101° (E) 23:01:19 435.910
NO-84 26 Feb 22:57:15 23:01:14 55° 36° (NE) 23:05:28 435.350 FM
DUCHIFAT 1 26 Feb 23:10:28 23:13:39 20° 94° (E) 23:16:48 145.980
LO-87 26 Feb 23:17:52 23:20:09 16° 267° (W) 23:22:28 145.935 - 145.965
EO-79 26 Feb 23:22:40 23:26:33 32° 97° (E) 23:30:24 145.935-145.965
50 SAT 26 Feb 23:37:55 23:41:24 73° 76° (ENE) 23:44:53 437.505
NANOSAT C BR1 26 Feb 23:38:27 23:42:34 44° 99° (E) 23:46:39 145.865
POLYITAN 1 26 Feb 23:40:30 23:44:43 52° 100° (E) 23:48:53 437.675
QB50P2 26 Feb 23:43:31 23:47:47 60° 101° (ESE) 23:52:00 145.880/145.840
SO-50 26 Feb 23:47:12 23:50:09 16° 322° (NW) 23:53:04 436.795
YUBILEINY 26 Feb 23:59:33 00:02:34 12° 288° (WNW) 00:05:34 435.215
BUGSAT 1 27 Feb 00:00:31 00:04:03 25° 95° (E) 00:07:33 437.445
ESTCUBE 1 27 Feb 00:02:33 00:05:20 16° 269° (W) 00:08:08 437.505/2401.250
DX 1 27 Feb 00:04:29 00:08:49 89° 261° (W) 00:13:10 434.975-435.025
AIST 2D 27 Feb 00:11:04 00:14:16 32° 288° (WNW) 00:17:27 435.315
PCSat 27 Feb 00:12:18 00:17:24 39° 51° (NE) 00:22:27 145.827
UKube-1 27 Feb 00:13:12 00:17:30 82° 76° (ENE) 00:21:49 .
SPROUT 27 Feb 00:14:22 00:18:20 38° 262° (W) 00:22:21 437.525
RS-15 27 Feb 00:14:50 00:26:16 40° 34° (NE) 00:37:20 29.354- 29.394
VELOX 1 27 Feb 00:19:17 00:23:04 28° 264° (W) 00:26:52 145.980
FO-29 27 Feb 00:32:40 00:38:48 27° 301° (WNW) 00:44:32 435.910
NO-84 27 Feb 00:35:21 00:38:45 24° 231° (SW) 00:42:16 435.350 FM
DUCHIFAT 1 27 Feb 00:45:30 00:49:25 36° 290° (WNW) 00:53:19 145.980
ITUPSAT 1 27 Feb 00:57:03 01:00:24 19° 63° (ENE) 01:03:46 437.325
EO-79 27 Feb 00:58:45 01:02:09 23° 293° (WNW) 01:05:32 145.935-145.965
BEESAT 27 Feb 01:02:10 01:05:46 22° 64° (ENE) 01:09:23 436.000
Oscar 19 27 Feb 01:06:00 01:10:42 35° 97° (E) 01:15:22 437.125/150
NANOSAT C BR1 27 Feb 01:15:05 01:17:56 18° 296° (WNW) 01:20:46 145.865
POLYITAN 1 27 Feb 01:17:29 01:20:04 16° 297° (WNW) 01:22:39 437.675
QB50P2 27 Feb 01:20:53 01:23:04 14° 298° (WNW) 01:25:14 145.880/145.840
BUGSAT 1 27 Feb 01:35:41 01:39:23 29° 291° (WNW) 01:43:05 437.445
PCSat 27 Feb 01:55:53 02:00:42 33° 250° (WSW) 02:05:29 145.827
Gurwin Techsat 1B 27 Feb 02:04:34 02:09:54 70° 102° (ESE) 02:15:12 435.225
RS-15 27 Feb 02:27:47 02:40:08 80° 241° (WSW) 02:51:54 29.354- 29.394
ITUPSAT 1 27 Feb 02:33:09 02:37:50 52° 260° (W) 02:42:33 437.325
BEESAT 27 Feb 02:38:40 02:43:14 44° 261° (W) 02:47:51 436.000
MOZHAYETS 4 27 Feb 02:43:23 02:48:00 75° 76° (ENE) 02:52:40
Oscar 19 27 Feb 02:45:31 02:49:54 29° 294° (WNW) 02:54:16 437.125/150
KKS-1 27 Feb 03:01:54 03:05:47 31° 68° (ENE) 03:09:41 437.445
ITAMSAT 1 27 Feb 03:22:29 03:27:43 67° 102° (ESE) 03:32:54 435.822/435.867
M-CUBED/EXP-1 PRIME 27 Feb 03:23:38 03:25:16 13° 60° (ENE) 03:26:53 437.505
STARS 27 Feb 03:30:56 03:34:40 28° 67° (ENE) 03:38:26 437.465
AO-7 27 Feb 03:38:07 03:46:21 60° 104° (ESE) 03:54:30 .
Gurwin Techsat 1B 27 Feb 03:45:54 03:49:16 17° 300° (WNW) 03:52:37 435.225
AO-85 27 Feb 03:47:06 03:51:35 62° 121° (ESE) 03:55:47 145.980
CUBESAT XI-V 27 Feb 03:47:45 03:52:19 56° 73° (ENE) 03:56:51 437.345
MOZHAYETS 4 27 Feb 04:24:10 04:25:41 11° 271° (W) 04:27:12
KKS-1 27 Feb 04:38:40 04:42:20 25° 265° (W) 04:46:02 437.445
RS-15 27 Feb 04:42:39 04:50:31 20° 263° (W) 04:58:11 29.354- 29.394
SO-50 27 Feb 04:55:46 04:58:32 16° 37° (NE) 05:01:17 436.795
M-CUBED/EXP-1 PRIME 27 Feb 04:56:28 04:59:29 34° 256° (WSW) 05:02:30 437.505
STRAND 1 27 Feb 05:01:28 05:03:15 12° 57° (ENE) 05:05:02 437.568
ITAMSAT 1 27 Feb 05:03:15 05:06:37 18° 300° (WNW) 05:09:59 435.822/435.867
STARS 27 Feb 05:07:14 05:10:58 27° 264° (W) 05:14:44 437.465
KAITUO 1B 27 Feb 05:20:48 05:21:45 11° 90° (E) 05:22:41 145.475/437.950
BEESAT 3 27 Feb 05:27:00 05:30:39 40° 117° (ESE) 05:34:22 437.485
CUBESAT XI-V 27 Feb 05:27:17 05:30:01 15° 269° (W) 05:32:45 437.345
XW-2F 27 Feb 05:27:28 05:29:54 16° 92° (E) 05:32:18 145.980 - 146.000
AO-85 27 Feb 05:29:15 05:32:19 18° 317° (NW) 05:35:15 145.980
AO-7 27 Feb 05:31:29 05:38:41 34° 303° (WNW) 05:45:51 .
XW-2D 27 Feb 05:32:58 05:35:50 20° 94° (E) 05:38:40 145.860 - 145.880
XW-2B 27 Feb 05:37:56 05:40:58 22° 94° (E) 05:43:57 145.730 - 145.750
XW-2C 27 Feb 05:46:26 05:49:46 28° 96° (E) 05:53:03 145.795 - 145.815
DOVE 4 27 Feb 05:51:17 05:55:48 42° 98° (E) 06:00:34 437.250
NUDT-PHONESAT 27 Feb 05:51:25 05:54:36 26° 95° (E) 05:57:45 437.300
LilacSat-2 27 Feb 06:05:05 06:08:50 49° 99° (E) 06:12:32 437.200
HO-68 27 Feb 06:08:15 06:10:46 12° 86° (E) 06:13:16 435.675
BEESAT 2 27 Feb 06:09:26 06:13:13 47° 118° (ESE) 06:17:05 435.950
ISS 27 Feb 06:15:32 06:17:18 14° 131° (SE) 06:19:04 437.550
CUTE-I 27 Feb 06:23:37 06:28:59 64° 102° (ESE) 06:34:18 437.470
XW-2A 27 Feb 06:34:10 06:36:07 14° 92° (E) 06:38:04 145.665 - 145.685
SO-50 27 Feb 06:35:06 06:39:38 87° 236° (SW) 06:44:06 436.795
Tancredo 1 27 Feb 06:35:19 06:37:54 22° 135° (SE) 06:40:30 437.200
STRAND 1 27 Feb 06:36:27 06:41:35 83° 75° (ENE) 06:46:47 437.568
KAITUO 1B 27 Feb 06:52:25 06:56:06 52° 286° (WNW) 06:59:44 145.475/437.950
XW-2F 27 Feb 07:00:41 07:04:11 35° 288° (WNW) 07:07:39 145.980 - 146.000
BEESAT 3 27 Feb 07:05:19 07:08:25 22° 316° (NW) 07:11:32 437.485
XW-2D 27 Feb 07:06:43 07:10:03 29° 290° (WNW) 07:13:21 145.860 - 145.880
XW-2B 27 Feb 07:11:55 07:15:07 26° 291° (WNW) 07:18:20 145.730 - 145.750
CUTE 1.7 + AOD 2 27 Feb 07:13:41 07:17:29 32° 96° (E) 07:21:15 437.475
O/OREOS (USA 219) 27 Feb 07:15:11 07:19:06 27° 57° (ENE) 07:23:00 437.305
XW-2C 27 Feb 07:20:53 07:23:49 21° 292° (WNW) 07:26:42 145.795 - 145.815
NUDT-PHONESAT 27 Feb 07:25:28 07:28:25 22° 292° (WNW) 07:31:20 437.300
DOVE 4 27 Feb 07:29:33 07:33:16 23° 293° (WNW) 07:37:09 437.250
LilacSat-2 27 Feb 07:40:51 07:42:41 13° 296° (WNW) 07:44:30 437.200
BEESAT 2 27 Feb 07:48:17 07:51:14 20° 317° (NW) 07:54:14 435.950
ISS 27 Feb 07:50:04 07:53:22 75° 327° (NNW) 07:56:40 437.550
AAUSAT CUBESAT 2 27 Feb 07:50:28 07:53:58 26° 95° (E) 07:57:25 437.432
HO-68 27 Feb 07:52:28 07:59:39 73° 105° (ESE) 08:06:47 435.675
CUBEBUG 2 27 Feb 07:52:38 07:57:10 41° 97° (E) 08:01:36 437.445
AO-73 27 Feb 07:54:42 07:57:12 15° 90° (E) 07:59:40 145.935
Oscar 11 27 Feb 07:59:06 08:01:09 13° 90° (E) 08:03:12 .
CUTE-I 27 Feb 08:04:49 08:08:30 19° 299° (WNW) 08:12:11 437.470
XW-2A 27 Feb 08:05:52 08:09:00 32° 288° (WNW) 08:12:07 145.665 - 145.685
SEEDS 27 Feb 08:06:50 08:11:01 85° 99° (E) 08:15:10 437.485
TIGRISAT 27 Feb 08:07:47 08:10:07 14° 61° (ENE) 08:12:28 435.000
UNISAT 6 27 Feb 08:07:51 08:10:26 15° 62° (ENE) 08:13:02 437.425
Tancredo 1 27 Feb 08:10:49 08:13:59 48° 332° (NNW) 08:17:09 437.200
STRAND 1 27 Feb 08:19:29 08:21:23 12° 272° (W) 08:23:19 437.568
UWE-3 27 Feb 08:25:39 08:30:16 57° 100° (E) 08:34:47 435.000/436.395/437.385
ZACube-1 27 Feb 08:42:04 08:46:31 50° 99° (E) 08:50:51 437.345
CUTE 1.7 + AOD 2 27 Feb 08:49:51 08:53:08 22° 293° (WNW) 08:56:25 437.475
PRISM 27 Feb 08:53:38 08:57:43 79° 259° (WSW) 09:01:48 437.425
O/OREOS (USA 219) 27 Feb 08:54:25 08:58:31 33° 255° (WSW) 09:02:37 437.305
FO-29 27 Feb 08:58:37 09:05:08 36° 62° (ENE) 09:12:03 435.910
DELFI C3 27 Feb 09:04:59 09:07:58 20° 94° (E) 09:10:56 145.870
YUBILEINY 27 Feb 09:05:24 09:12:41 30° 82° (E) 09:19:56 435.215
AAUSAT CUBESAT 2 27 Feb 09:25:56 09:29:21 26° 292° (WNW) 09:32:44 437.432
ISS 27 Feb 09:27:38 09:30:15 21° 347° (NNW) 09:32:52 437.550
AO-73 27 Feb 09:29:20 09:33:48 56° 287° (WNW) 09:38:08 145.935
CUBEBUG 2 27 Feb 09:29:48 09:33:29 23° 294° (WNW) 09:37:09 437.445
Oscar 11 27 Feb 09:33:24 09:37:39 57° 287° (WNW) 09:41:52 .
HO-68 27 Feb 09:41:16 09:46:41 24° 303° (WNW) 09:52:07 435.675
TIGRISAT 27 Feb 09:41:42 09:46:12 69° 259° (W) 09:50:50 435.000
UNISAT 6 27 Feb 09:42:06 09:46:35 63° 260° (W) 09:51:12 437.425
Tancredo 1 27 Feb 09:48:28 09:50:49 18° 351° (N) 09:53:11 437.200
UWE-3 27 Feb 10:03:19 10:06:13 17° 297° (WNW) 10:09:07 435.000/436.395/437.385
DUCHIFAT 1 27 Feb 10:03:25 10:06:10 17° 64° (ENE) 10:08:56 145.980
EO-79 27 Feb 10:15:49 10:19:23 27° 68° (ENE) 10:22:58 145.935-145.965
ZACube-1 27 Feb 10:19:21 10:22:23 18° 296° (WNW) 10:25:21 437.345
NANOSAT C BR1 27 Feb 10:31:03 10:34:55 36° 70° (ENE) 10:38:48 145.865
POLYITAN 1 27 Feb 10:33:31 10:37:30 42° 71° (ENE) 10:41:33 437.675
QB50P2 27 Feb 10:36:29 10:40:34 48° 72° (ENE) 10:44:41 145.880/145.840
DELFI C3 27 Feb 10:39:22 10:42:48 30° 290° (WNW) 10:46:13 145.870
LO-87 27 Feb 10:42:48 10:46:06 33° 98° (E) 10:49:24 145.935 - 145.965
FO-29 27 Feb 10:42:48 10:49:47 52° 262° (W) 10:57:24 435.910
AIST 2D 27 Feb 10:45:27 10:49:01 85° 260° (W) 10:52:37 435.315
BUGSAT 1 27 Feb 10:51:23 10:54:18 19° 65° (ENE) 10:57:15 437.445
YUBILEINY 27 Feb 11:00:11 11:08:53 61° 283° (WNW) 11:17:35 435.215
ISS 27 Feb 11:05:12 11:07:34 18° 7° (N) 11:09:56 437.550
